{"data":{"norad_id":67241,"epoch":"2026-05-25T03:09:41.994720Z","epoch_age_seconds":57438,"freshness":"FRESH","line1":"1 67241U 25311F   26145.13173605 -.00000089  00000+0  76246-4 0  9992","line2":"2 67241  50.0089 198.4735 0000969 246.1103 113.9668 13.29323060 20276","mean_motion":13.2932306,"eccentricity":9.69e-5,"inclination_deg":50.0089,"raan_deg":198.4735,"arg_perigee_deg":246.1103,"mean_anomaly_deg":113.9668,"bstar":7.6246e-5,"rev_number":2027,"period_min":108.32581208664,"perigee_km":1148.5882602159,"apogee_km":1150.047080931,"semimajor_km":7527.4546705734,"source":"CELESTRAK","updated_at":"2026-05-25T13:38:06.822641Z"}}